Mesquite, TX

3:05 PM CDT on August 28, 2016 (GMT -0500)
Mesquite Metro

Weather History for KHQZ - January, 2013

Change the Weather History Date:

Thursday, January 10, 2013

  Actual Average (KDFW) Record (KDFW)
Temperature  
Mean Temperature 52 °F 46 °F  
Max Temperature 59 °F 56 °F 79 °F (1995)
Min Temperature 44 °F 35 °F 7 °F (1982)
Degree Days  
Heating Degree Days 14 20  
Month to date heating degree days 200  
Since 1 July heating degree days 1112  
Cooling Degree Days 0 0  
Month to date cooling degree days 0  
Year to date cooling degree days 0  
Growing Degree Days 2 (Base 50)    
Moisture  
Dew Point 48 °F    
Average Humidity 82    
Maximum Humidity 100    
Minimum Humidity 59    
Precipitation  
Precipitation 0.17 in 0.06 in 0.76 in (1913)
Month to date precipitation 0.63  
Year to date precipitation 0.63  
Snow  
Snow 0.00 in 0.00 in 3.00 in (1906)
Month to date snowfall 0.0  
Since 1 July snowfall 0.3  
Snow Depth -    
Sea Level Pressure  
Sea Level Pressure 29.96 in    
Wind  
Wind Speed 10 mph (South)    
Max Wind Speed 18 mph    
Max Gust Speed 29 mph    
Visibility 8 miles    
Events      
T = Trace of Precipitation, MM = Missing Value Source: NWS Daily Summary

Daily Weather History Graph

Daily Weather History Graph

Search for Another Location

Airport or City:

Trip Planner

Search our weather history database for the weather conditions in past years. The results will help you decide how hot, cold, wet, or windy it might be!

Date:

Astronomy

Jan. 10, 2013 Rise Set
Actual Time 7:29 AM CST 5:38 PM CST
Civil Twilight 7:02 AM CST 6:05 PM CST
Nautical Twilight 6:31 AM CST 6:35 PM CST
Astronomical Twilight 6:02 AM CST 7:05 PM CST
Moon 6:10 AM CST (1/10) 4:46 PM CST (1/10)
Length of Visible Light 11h 03m
Length of Day
10h 09m
Waning Crescent, 2% of the Moon is Illuminated
Jan 10
Waning Crescent
Jan 11
New
Jan 18
First Quarter
Jan 26
Full
Feb 3
Last Quarter

Hourly Weather History & Observations

Time (CST) Temp. Windchill Dew Point Humidity Pressure Visibility Wind Dir Wind Speed Gust Speed Precip Events Conditions
12:15 AM 53.6 °F - 51.8 °F 94% 30.01 in 10.0 mi ENE 6.9 mph - 0.02 in   Overcast
2:35 AM 55.4 °F - 53.6 °F 94% 29.96 in 4.0 mi East 11.5 mph - 0.03 in   Overcast
2:55 AM 55.4 °F - 53.6 °F 94% 29.96 in 5.0 mi East 10.4 mph - 0.04 in   Overcast
3:15 AM 55.4 °F - 53.6 °F 94% 29.96 in 4.0 mi East 10.4 mph - 0.01 in   Overcast
3:35 AM 55.4 °F - 53.6 °F 94% 29.96 in 2.0 mi East 9.2 mph - 0.02 in   Overcast
3:55 AM 55.4 °F - 53.6 °F 94% 29.96 in 2.5 mi ESE 6.9 mph - 0.03 in   Overcast
4:15 AM 55.4 °F - 53.6 °F 94% 29.96 in 4.0 mi SE 4.6 mph - 0.01 in   Overcast
4:55 AM 57.2 °F - 55.4 °F 94% 29.94 in 3.0 mi SE 8.1 mph - 0.03 in   Overcast
5:15 AM 57.2 °F - 55.4 °F 94% 29.94 in 0.5 mi SSE 9.2 mph - 0.01 in   Overcast
5:35 AM 57.2 °F - 55.4 °F 94% 29.94 in 1.2 mi South 6.9 mph - 0.02 in   Overcast
5:55 AM 57.2 °F - 55.4 °F 94% 29.94 in 7.0 mi South 9.2 mph - 0.03 in   Overcast
6:15 AM 55.4 °F - 55.4 °F 100% 29.94 in 7.0 mi South 11.5 mph - 0.01 in   Overcast
6:35 AM 55.4 °F - 53.6 °F 94% 29.95 in 4.0 mi South 9.2 mph - 0.01 in   Overcast
6:55 AM 55.4 °F - 53.6 °F 94% 29.95 in 7.0 mi South 8.1 mph - 0.02 in   Overcast
7:15 AM 55.4 °F - 53.6 °F 94% 29.96 in 7.0 mi South 12.7 mph 18.4 mph N/A   Overcast
7:35 AM 55.4 °F - 53.6 °F 94% 29.96 in 7.0 mi South 12.7 mph 18.4 mph 0.01 in   Overcast
7:55 AM 53.6 °F - 53.6 °F 100% 29.96 in 7.0 mi SSW 10.4 mph - 0.01 in   Overcast
8:15 AM 53.6 °F - 51.8 °F 94% 29.97 in 10.0 mi SSW 8.1 mph - N/A   Mostly Cloudy
8:35 AM 53.6 °F - 51.8 °F 94% 29.96 in 7.0 mi SSW 9.2 mph - N/A   Scattered Clouds
8:55 AM 55.4 °F - 51.8 °F 88% 29.96 in 10.0 mi SSW 10.4 mph - N/A   Scattered Clouds
9:15 AM 55.4 °F - 51.8 °F 88% 29.96 in 10.0 mi SSW 8.1 mph - N/A   Mostly Cloudy
9:35 AM 55.4 °F - 50.0 °F 82% 29.94 in 10.0 mi SW 12.7 mph - 0.01 in   Mostly Cloudy
9:55 AM 53.6 °F - 50.0 °F 88% 29.95 in 10.0 mi SW 10.4 mph - 0.01 in   Scattered Clouds
10:15 AM 55.4 °F - 50.0 °F 82% 29.97 in 10.0 mi South 11.5 mph 16.1 mph N/A   Scattered Clouds
10:35 AM 55.4 °F - 48.2 °F 77% 29.99 in 10.0 mi SW 12.7 mph - N/A   Mostly Cloudy
11:15 AM 55.4 °F - 48.2 °F 77% 29.98 in 10.0 mi SSW 11.5 mph - N/A   Scattered Clouds
11:35 AM 57.2 °F - 48.2 °F 72% 29.96 in 10.0 mi SSW 15.0 mph - N/A   Mostly Cloudy
12:15 PM 59.0 °F - 46.4 °F 63% 29.94 in 10.0 mi South 18.4 mph - N/A   Scattered Clouds
12:35 PM 57.2 °F - 44.6 °F 63% 29.93 in 10.0 mi SSW 16.1 mph 23.0 mph N/A   Mostly Cloudy
12:55 PM 59.0 °F - 44.6 °F 59% 29.94 in 10.0 mi SSW 13.8 mph 24.2 mph N/A   Mostly Cloudy
1:15 PM 55.4 °F - 44.6 °F 67% 29.94 in 10.0 mi SSW 16.1 mph 21.9 mph N/A   Mostly Cloudy
1:35 PM 55.4 °F - 42.8 °F 63% 29.94 in 10.0 mi SSW 18.4 mph 21.9 mph N/A   Overcast
1:55 PM 57.2 °F - 44.6 °F 63% 29.94 in 10.0 mi SSW 15.0 mph 19.6 mph N/A   Scattered Clouds
2:15 PM 57.2 °F - 42.8 °F 59% 29.94 in 10.0 mi SSW 17.3 mph 23.0 mph N/A   Clear
2:35 PM 59.0 °F - 44.6 °F 59% 29.93 in 10.0 mi SSW 18.4 mph 24.2 mph N/A   Clear
2:55 PM 55.4 °F - 42.8 °F 63% 29.94 in 10.0 mi SSW 15.0 mph 23.0 mph N/A   Mostly Cloudy
3:15 PM 55.4 °F - 42.8 °F 63% 29.94 in 10.0 mi SSW 13.8 mph 28.8 mph N/A   Scattered Clouds
3:35 PM 55.4 °F - 44.6 °F 67% 29.94 in 10.0 mi SSW 16.1 mph 20.7 mph N/A   Mostly Cloudy
3:55 PM 55.4 °F - 44.6 °F 67% 29.94 in 10.0 mi SSW 13.8 mph 18.4 mph N/A   Overcast
4:15 PM 55.4 °F - 44.6 °F 67% 29.95 in 10.0 mi SSW 15.0 mph - N/A   Overcast
4:35 PM 55.4 °F - 44.6 °F 67% 29.96 in 10.0 mi SSW 12.7 mph 20.7 mph N/A   Overcast
5:15 PM 53.6 °F - 44.6 °F 72% 29.96 in 10.0 mi SSW 10.4 mph - N/A   Scattered Clouds
6:15 PM 51.8 °F - 42.8 °F 71% 29.98 in 10.0 mi SSW 6.9 mph - N/A   Scattered Clouds
6:35 PM 51.8 °F - 42.8 °F 71% 29.98 in 10.0 mi SSW 5.8 mph - N/A   Clear
6:55 PM 50.0 °F - 42.8 °F 76% 29.98 in 10.0 mi South 5.8 mph - N/A   Clear
7:15 PM 50.0 °F - 44.6 °F 82% 29.97 in 10.0 mi South 10.4 mph - N/A   Clear
7:35 PM 50.0 °F - 42.8 °F 76% 29.97 in 10.0 mi South 8.1 mph - N/A   Clear
7:55 PM 48.2 °F - 42.8 °F 82% 29.96 in 10.0 mi South 8.1 mph - N/A   Clear
8:15 PM 48.2 °F - 42.8 °F 82% 29.97 in 10.0 mi South 9.2 mph - N/A   Clear
8:35 PM 46.4 °F 42.4 °F 42.8 °F 87% 29.97 in 10.0 mi South 8.1 mph - N/A   Clear
8:55 PM 46.4 °F 42.4 °F 42.8 °F 87% 29.99 in 10.0 mi South 8.1 mph - N/A   Clear
9:15 PM 46.4 °F 42.9 °F 42.8 °F 87% 29.98 in 10.0 mi South 6.9 mph - N/A   Clear
9:35 PM 46.4 °F 42.4 °F 42.8 °F 87% 29.97 in 10.0 mi South 8.1 mph - N/A   Clear
9:55 PM 46.4 °F 42.9 °F 42.8 °F 87% 29.97 in 10.0 mi South 6.9 mph - N/A   Clear
10:15 PM 46.4 °F 42.4 °F 42.8 °F 87% 29.97 in 10.0 mi South 8.1 mph - N/A   Clear
10:35 PM 46.4 °F 42.4 °F 42.8 °F 87% 29.97 in 10.0 mi South 8.1 mph - N/A   Clear
10:55 PM 44.6 °F 40.2 °F 42.8 °F 93% 29.97 in 10.0 mi South 8.1 mph - N/A   Clear
11:15 PM 44.6 °F 40.7 °F 42.8 °F 93% 29.98 in 10.0 mi South 6.9 mph - N/A   Clear
11:35 PM 44.6 °F 42.2 °F 42.8 °F 93% 29.99 in 10.0 mi SSW 4.6 mph - N/A   Clear
11:55 PM 44.6 °F 41.4 °F 41.0 °F 87% 29.98 in 10.0 mi South 5.8 mph - N/A   Clear